Regional Weather Roundup
Issued by NWS Cleveland, OH

Home | Current Version | Previous Version | Text Only | Print | Product List | Glossary Off
Versions: 1 2 3 4 5 6 7 8 9 10 11 12 13 14 15 16 17 18 19 20 21 22 23 24 25 26 27 28 29 30 31 32 33 34 35 36 37 38 39 40 41 42 43 44 45 46 47 48 49 50

000
ASUS41 KCLE 232302
RWRCLE
OHIO REGIONAL WEATHER ROUNDUP
NATIONAL WEATHER SERVICE CLEVELAND, OH
600 PM EST SUN NOV 23 2014

NOTE: "FAIR" INDICATES FEW OR NO CLOUDS BELOW 12,000 FEET WITH NO
SIGNIFICANT WEATHER AND/OR OBSTRUCTIONS TO VISIBILITY.

OHZ001>008-015>018-024>027-034-035-043-044-240000-
   NORTHWEST OHIO

CITY           SKY/WX    TMP DP  RH WIND       PRES   REMARKS
DEFIANCE       LGT RAIN  51  48  89 E6        29.54F
FINDLAY        LGT RAIN  58  44  60 E13       29.55F
TOLEDO EXPRESS LGT RAIN  52  47  83 E6        29.57F
TOLEDO EXEC    LGT RAIN  53  45  74 E9        29.59F
LIMA           CLOUDY    57  43  59 SE15      29.54F
$$

OHZ009>014-019>023-028>033-038-089-240000-
   NORTHEAST OHIO

CITY           SKY/WX    TMP DP  RH WIND       PRES   REMARKS
CLE-HOPKINS    CLOUDY    58  43  57 SE15G22   29.70F
CLE-LAKEFRONT  CLOUDY    58  43  57 SE17G26   29.66F
CUY CO. ARPT   CLOUDY    57  45  62 SE16      29.70F
LORAIN-ELYRIA  CLOUDY    56  44  64 SE15      29.66F
ASHTABULA      CLOUDY    53  42  66 SE13      29.75F
AKRON-CANTON   CLOUDY    57  44  62 SE12      29.71F
WOOSTER        CLOUDY   N/A N/A N/A SE8       29.68F
MANSFIELD      CLOUDY    58  42  55 SE20G28   29.65F
YOUNGSTOWN     CLOUDY    54  44  69 E13       29.75F
$$

OHZ042-051>053-060>062-070>072-077>081-240000-
  SOUTHWEST OHIO

CITY           SKY/WX    TMP DP  RH WIND       PRES   REMARKS
CINC-COVINGTON RAIN      55  52  89 SE22G28   29.49F FOG
CINC-LUNKEN    LGT RAIN  56  54  93 SE14G23   29.53F
HAMILTON       RAIN      55  52  89 SE9G20    29.51F FOG
DAYTON         LGT RAIN  57  48  72 SE20G28   29.53F
WRIGHT-PAT AFB NOT AVBL
DAYTON GENERAL LGT RAIN  56  49  77 SE15G24   29.52F
WILMINGTON     LGT RAIN  54  49  83 SE16      29.56F
$$

OHZ036-037-039>041-045>050-054>059-063>069-073>076-082>088-240000-
  CENTRAL AND SOUTHEAST OHIO

CITY           SKY/WX    TMP DP  RH WIND       PRES   REMARKS
COLUMBUS       LGT RAIN  57  43  59 SE13      29.62F
OSU AIRPORT    LGT RAIN  56  44  64 SE14      29.61F
BOLTON FIELD   MOCLDY    55  46  71 SE10G18   29.61F
RICKENBACK AFB NOT AVBL
NEWARK         CLOUDY    58  43  57 SE9       29.65F
MARION         CLOUDY    59  40  49 SE18G26   29.60F
LANCASTER      CLOUDY    58  44  60 SE17G23   29.65F
ZANESVILLE     LGT RAIN  58  44  60 SE14G21   29.69F
NEW PHILLY     CLOUDY    61  46  57 SE10      29.72F
$$


USA.gov is the U.S. government's official web portal to all federal, state and local government web resources and services.